Location: Avenches
(46.8809°N, 7.0410°E)
Time: 09:05:26
(UTC+00:00)

Cosmos 1703 - Pass Details

Date: 30 March 2020
Orbit: 523 x 541 km, 82.5° (Epoch: 06 June)

Event Time Altitude Azimuth Distance (km) Brightness Sun altitude
Rises 20:35:36 0° 346° (NNW) 2,696 7.6 -25.3°
Reaches altitude 10° 20:37:46 10° 342° (NNW) 1,803 6.7 -25.6°
Enters shadow 20:41:09 51° 296° (WNW) 686 4.0 -26.0°
